FW9323 Weather Reports


Display with metric or nautical units.
time (UTC)temp
F
wind
direction
speed
MPH
gust
MPH
rain 1hr
in
rain 24hr
in
rain mn
in
humidity
%
barometer
mb
20260504100257 46 227 2.0 5.0 0.00 0.00 0.00 87 1005.7
20260504081651 46 2 1.0 1.0 0.00 0.00 0.00 78 1006.2
20260504081147 45 312 0.0 1.0 0.00 0.00 0.00 78 1006.2
20260504080644 45 111 2.0 2.0 0.00 0.00 0.00 78 1006.2
20260504080140 45 264 1.0 2.0 0.00 0.00 0.00 78 1006.3
20260504070108 41 32 1.0 1.0 0.00 0.00 0.00 83 1006.3
20260504050456 39 53 1.0 2.0 0.00 0.00 0.00 76 1006.7
20260504045953 38 10 1.0 1.0 0.00 0.00 0.00 79 1006.7
20260504045449 37 333 0.0 0.0 0.00 0.00 0.00 83 1006.9
20260504044945 37 330 0.0 0.0 0.00 0.00 0.00 85 1007.0
20260504044443 37 325 0.0 0.0 0.00 0.00 0.00 87 1006.9
20260504043940 37 296 1.0 1.0 0.00 0.00 0.00 88 1007.0
20260504043437 36 307 0.0 0.0 0.00 0.00 0.00 89 1007.0
20260504042935 34 306 0.0 1.0 0.00 0.00 0.00 92 1006.9
20260504042431 34 342 0.0 0.0 0.00 0.00 0.00 93 1007.1
20260504041928 33 330 0.0 0.0 0.00 0.00 0.00 93 1007.1
20260504041424 33 330 0.0 0.0 0.00 0.00 0.00 94 1007.0
20260504040920 33 337 0.0 0.0 0.00 0.00 0.00 94 1006.9
20260504040418 33 141 0.0 0.0 0.00 0.00 0.00 94 1007.0
20260504035914 32 141 0.0 0.0 0.00 0.00 0.00 94 1007.0
20260504035412 32 141 0.0 0.0 0.00 0.00 0.00 95 1007.1
20260504034908 31 141 0.0 0.0 0.00 0.00 0.00 94 1007.0
20260504034405 31 141 0.0 0.0 0.00 0.00 0.00 94 1007.0
20260504033903 31 141 0.0 0.0 0.00 0.00 0.00 94 1007.1
20260504033400 31 141 0.0 0.0 0.00 0.00 0.00 94 1006.9
20260504032856 31 141 0.0 0.0 0.00 0.00 0.00 94 1007.0
20260504032354 31 141 0.0 0.0 0.00 0.00 0.00 94 1007.0
20260504031850 31 141 0.0 0.0 0.00 0.00 0.00 94 1007.1
20260504031348 31 141 0.0 0.0 0.00 0.00 0.00 94 1007.0
20260504030844 32 141 0.0 0.0 0.00 0.00 0.00 93 1007.0
20260504030341 32 141 0.0 0.0 0.00 0.00 0.00 93 1007.2
20260504025837 32 141 0.0 0.0 0.00 0.00 0.00 93 1007.1
20260504025334 32 141 0.0 0.0 0.00 0.00 0.00 93 1007.1
20260504024831 32 141 0.0 0.0 0.00 0.00 0.00 93 1007.2
20260504024327 32 141 0.0 0.0 0.00 0.00 0.00 93 1007.3
20260504023824 32 141 0.0 0.0 0.00 0.00 0.00 92 1007.1
20260504023321 33 141 0.0 0.0 0.00 0.00 0.00 92 1007.4
20260504022817 32 141 0.0 0.0 0.00 0.00 0.00 92 1007.5
20260504022314 32 141 0.0 0.0 0.00 0.00 0.00 91 1007.4
20260504021810 32 141 0.0 0.0 0.00 0.00 0.00 90 1007.5
20260504021308 33 141 0.0 0.0 0.00 0.00 0.00 90 1007.4
20260504020804 33 141 0.0 0.0 0.00 0.00 0.00 89 1007.4
20260504020301 34 141 0.0 0.0 0.00 0.00 0.00 89 1007.5
20260504015757 34 141 0.0 0.0 0.00 0.00 0.00 89 1007.6
20260504015254 35 141 1.0 1.0 0.00 0.00 0.00 88 1007.4
20260504014749 35 141 0.0 0.0 0.00 0.00 0.00 88 1007.2
20260504014246 35 141 1.0 1.0 0.00 0.00 0.00 87 1007.5
20260504013744 35 141 0.0 0.0 0.00 0.00 0.00 87 1007.4
20260504013241 35 141 0.0 0.0 0.00 0.00 0.00 87 1007.6
20260504012737 35 141 0.0 0.0 0.00 0.00 0.00 86 1007.4
20260504012236 36 141 0.0 0.0 0.00 0.00 0.00 85 1007.3
20260504011732 36 141 0.0 0.0 0.00 0.00 0.00 85 1007.4
20260504011229 37 141 0.0 0.0 0.00 0.00 0.00 84 1007.2
20260504010725 37 141 0.0 0.0 0.00 0.00 0.00 84 1007.2
20260504010221 37 142 0.0 0.0 0.00 0.00 0.00 83 1007.2
20260504005718 37 141 0.0 0.0 0.00 0.00 0.00 81 1007.2
20260504005215 38 141 0.0 0.0 0.00 0.00 0.00 80 1007.0
20260504004713 39 141 0.0 0.0 0.00 0.00 0.00 77 1007.1
20260504004210 40 142 0.0 0.0 0.00 0.00 0.00 77 1007.1
20260504003706 39 142 0.0 0.0 0.00 0.00 0.00 74 1007.0
20260504003203 40 141 0.0 0.0 0.00 0.00 0.00 72 1006.9
20260504002700 41 141 0.0 0.0 0.00 0.00 0.00 70 1006.7
20260504002157 42 142 0.0 0.0 0.00 0.00 0.00 68 1007.1
20260504001655 42 142 0.0 0.0 0.00 0.00 0.00 68 1006.8
20260504001150 44 141 0.0 0.0 0.00 0.00 0.00 66 1007.0
20260504000648 44 142 0.0 0.0 0.00 0.00 0.00 64 1007.0
20260504000145 45 142 0.0 0.0 0.00 0.00 0.00 62 1006.8
20260503235643 46 142 0.0 0.0 0.00 0.00 0.00 61 1006.9
20260503235139 47 142 0.0 0.0 0.00 0.00 0.00 59 1006.7
20260503234638 48 142 0.0 0.0 0.00 0.00 0.00 57 1006.8
20260503234135 49 142 0.0 1.0 0.00 0.00 0.00 54 1006.9
20260503233632 49 142 1.0 1.0 0.00 0.00 0.00 52 1006.8
20260503233128 50 122 2.0 2.0 0.00 0.00 0.00 52 1006.8
20260503232625 50 199 2.0 2.0 0.00 0.00 0.00 50 1006.6
20260503232122 50 327 0.0 1.0 0.00 0.00 0.00 49 1006.6
20260503231620 50 289 0.0 1.0 0.00 0.00 0.00 50 1006.6
20260503231116 50 306 0.0 0.0 0.00 0.00 0.00 51 1006.6
20260503230614 50 308 0.0 0.0 0.00 0.00 0.00 51 1006.8
20260503230111 50 315 0.0 0.0 0.00 0.00 0.00 50 1006.7
20260503225608 50 317 0.0 0.0 0.00 0.00 0.00 52 1006.6
20260503225107 50 317 0.0 0.0 0.00 0.00 0.00 49 1006.6
20260503224605 50 311 1.0 1.0 0.00 0.00 0.00 49 1006.9
20260503224103 50 295 1.0 1.0 0.00 0.00 0.00 50 1006.8
20260503223601 49 308 1.0 2.0 0.00 0.00 0.00 48 1006.9
20260503223056 50 306 0.0 1.0 0.00 0.00 0.00 50 1006.7
20260503222554 50 301 2.0 2.0 0.00 0.00 0.00 50 1006.8
20260503222052 50 303 1.0 1.0 0.00 0.00 0.00 51 1006.8
20260503221550 50 328 2.0 2.0 0.00 0.00 0.00 48 1006.7
20260503221047 50 255 2.0 2.0 0.00 0.00 0.00 49 1006.7
20260503220543 50 306 0.0 0.0 0.00 0.00 0.00 50 1006.7
20260503220040 50 332 0.0 0.0 0.00 0.00 0.00 51 1006.8
20260503215537 50 331 0.0 0.0 0.00 0.00 0.00 50 1006.7
20260503215034 50 339 0.0 1.0 0.00 0.00 0.00 49 1006.7
20260503214533 50 333 1.0 2.0 0.00 0.00 0.00 51 1006.7
20260503214029 50 304 0.0 1.0 0.00 0.00 0.00 51 1006.8
20260503213528 50 334 1.0 1.0 0.00 0.00 0.00 51 1006.5
20260503213024 50 15 2.0 2.0 0.00 0.00 0.00 48 1006.7
20260503212521 50 268 3.0 3.0 0.00 0.00 0.00 49 1006.7
20260503212019 50 313 1.0 1.0 0.00 0.00 0.00 51 1006.6
20260503211515 50 305 2.0 2.0 0.00 0.00 0.00 52 1006.6
20260503211011 50 312 0.0 1.0 0.00 0.00 0.00 50 1006.8
20260503210508 50 296 1.0 2.0 0.00 0.00 0.00 50 1006.7
20260503210004 49 344 2.0 3.0 0.00 0.00 0.00 51 1006.7
20260503205500 50 299 3.0 3.0 0.00 0.00 0.00 52 1006.9
20260503204956 50 299 2.0 2.0 0.00 0.00 0.00 53 1006.6
20260503204454 50 299 3.0 5.0 0.00 0.00 0.00 50 1006.8
20260503203950 50 301 1.0 2.0 0.00 0.00 0.00 50 1006.5
20260503203448 49 311 0.0 1.0 0.00 0.00 0.00 52 1006.6
20260503202944 49 329 1.0 1.0 0.00 0.00 0.00 53 1006.6
20260503202443 49 293 3.0 3.0 0.00 0.00 0.00 51 1006.8
20260503201941 49 296 4.0 6.0 0.00 0.00 0.00 53 1006.9
20260503201438 49 313 1.0 1.0 0.00 0.00 0.00 53 1006.8
20260503200936 49 329 5.0 8.0 0.00 0.00 0.00 52 1006.9
20260503200432 50 356 7.0 8.0 0.00 0.00 0.00 49 1006.7
20260503195928 50 300 0.0 1.0 0.00 0.00 0.00 51 1006.9
20260503195426 50 293 4.0 5.0 0.00 0.00 0.00 52 1007.2
20260503194922 50 289 3.0 3.0 0.00 0.00 0.00 53 1007.1
20260503194419 49 288 3.0 3.0 0.00 0.00 0.00 53 1007.2
20260503193915 48 296 4.0 5.0 0.00 0.00 0.00 52 1007.5
20260503193410 49 358 7.0 9.0 0.00 0.00 0.00 53 1007.5
20260503192906 50 299 7.0 8.0 0.00 0.00 0.00 52 1007.4
20260503192402 49 315 3.0 3.0 0.00 0.00 0.00 53 1007.4
20260503191859 48 289 3.0 5.0 0.00 0.00 0.00 53 1007.4
20260503191356 48 308 4.0 5.0 0.00 0.00 0.00 54 1007.5
20260503190852 48 307 3.0 3.0 0.00 0.00 0.00 54 1007.5
20260503190349 48 300 4.0 6.0 0.00 0.00 0.00 55 1007.6
20260503185846 49 319 2.0 2.0 0.00 0.00 0.00 55 1007.5
20260503185342 49 322 2.0 2.0 0.00 0.00 0.00 53 1007.7
20260503184837 50 339 2.0 2.0 0.00 0.00 0.00 53 1007.7
20260503184333 50 325 0.0 1.0 0.00 0.00 0.00 52 1007.6
20260503183829 50 261 2.0 3.0 0.00 0.00 0.00 53 1007.5
20260503183326 49 327 2.0 2.0 0.00 0.00 0.00 58 1007.6
20260503182824 48 295 7.0 11.0 0.00 0.00 0.00 55 1007.8
20260503182323 48 252 4.0 6.0 0.00 0.00 0.00 54 1007.7
20260503181819 48 325 2.0 2.0 0.00 0.00 0.00 55 1007.7
20260503181317 48 308 3.0 3.0 0.00 0.00 0.00 55 1007.8
20260503180813 48 303 5.0 7.0 0.00 0.00 0.00 54 1007.7
20260503180311 48 294 5.0 6.0 0.00 0.00 0.00 53 1007.8
20260503175807 48 346 3.0 3.0 0.00 0.00 0.00 54 1007.7
20260503175305 48 280 6.0 7.0 0.00 0.00 0.00 54 1008.0
20260503174800 48 305 5.0 7.0 0.00 0.00 0.00 56 1007.9
20260503174259 47 326 2.0 2.0 0.00 0.00 0.00 56 1007.9
20260503173754 47 273 1.0 2.0 0.00 0.00 0.00 56 1007.8
20260503173250 48 232 6.0 8.0 0.00 0.00 0.00 56 1007.9
20260503172747 48 306 3.0 3.0 0.00 0.00 0.00 56 1008.0
20260503172244 47 328 3.0 5.0 0.00 0.00 0.00 55 1008.0
20260503171740 47 277 3.0 3.0 0.00 0.00 0.00 55 1008.1
20260503171238 48 296 1.0 2.0 0.00 0.00 0.00 56 1008.0
20260503170735 48 290 3.0 5.0 0.00 0.00 0.00 54 1008.0
20260503170231 48 289 3.0 5.0 0.00 0.00 0.00 58 1008.3
20260503160153 47 293 5.0 6.0 0.00 0.00 0.00 58 1008.5
20260503150623 47 311 2.0 2.0 0.00 0.00 0.00 57 1008.7
20260503150120 47 270 3.0 5.0 0.00 0.00 0.00 57 1008.6
20260503131013 44 30 1.0 2.0 0.00 0.00 0.00 79 1009.5
20260503130511 45 327 3.0 5.0 0.00 0.00 0.00 80 1009.5
20260503110401 38 321 0.0 0.0 0.00 0.00 0.00 99 1009.5